Regional Weather Roundup
Issued by NWS Sterling, VA

Home | Current Version | Previous Version | Graphics & Text | Print | Product List | Glossary On
Versions: 1 2 3 4 5 6 7 8 9 10 11 12 13 14 15 16 17 18 19 20 21 22 23 24 25 26 27 28 29 30 31 32 33 34 35 36 37 38 39 40 41 42 43 44 45 46 47 48 49 50
000
ASUS41 KLWX 041410
RWRLWX

REGIONAL WEATHER ROUNDUP
NATIONAL WEATHER SERVICE BALTIMORE MD/WASHINGTON DC
1000 AM EDT MON MAY 04 2015

Note: "FAIR" indicates few or no clouds below 12,000 feet
with no significant weather and/or obstructions to visibility.
 TC=TEMPERATURE CELSIUS

 * =Non NWS site. Station does not report precipitation (e.g. rain,
    snow, etc.), thunder, or fog.

DCZ001-MDZ009-015-VAZ040>042-051-053>054-041500-
WASHINGTON METRO

CITY           SKY/WX    TMP DP  RH WIND       PRES   REMARKS
WASHINGTON NAT MOSUNNY   70  53  54 S10       30.25S
DULLES         SUNNY     71  50  47 S6        30.24S
ANDREWS AFB    SUNNY     74  51  44 SW9       30.24S
FT BELVOIR     SUNNY     71  53  53 VRB5      30.25S
QUANTICO       SUNNY     66  54  65 S9        30.26S
COLLEGE PARK*  SUNNY     72  48  43 CALM      30.24R
LEESBURG*      SUNNY     72  54  53 S3        30.25S
MANASSAS*      SUNNY     70  52  52 SW5       30.25S
GAITHERSBURG*  SUNNY     72  46  40 SW6       30.28S

$$

MDZ006>007-011-014-041500-
BALTIMORE METRO

CITY           SKY/WX    TMP DP  RH WIND       PRES   REMARKS
BWI AIRPORT    MOSUNNY   73  49  42 W7        30.23S
MD SCIENCE CTR   N/A     73  48  41 MISG      30.23F
MARTIN STATE   SUNNY     72  55  56 SE5       30.25S
ANNAPOLIS      SUNNY     66  55  67 VRB5      30.24S
FORT MEADE*    SUNNY     72  50  46 SW7       30.26S

$$

MDZ012-015-019>023-041500-
MARYLAND EASTERN SHORE

CITY           SKY/WX    TMP DP  RH WIND       PRES   REMARKS
OCEAN CITY     SUNNY     72  52  49 SW9       30.27S
SALISBURY      SUNNY     72  51  47 SW8       30.27S
BAY BRIDGE AP*   N/A    N/A N/A N/A SW5       30.25R
CAMBRIDGE*     SUNNY     73  48  40 SW7       30.25S
EASTON*        SUNNY     73  54  49 SW8       30.29R

$$

MDZ017>025-041500-
SOUTHERN MARYLAND

CITY           SKY/WX    TMP DP  RH WIND       PRES   REMARKS
PATUXENT RIVER SUNNY     73  53  49 SW9       30.26S
ST INIGOES     SUNNY     70  51  51 SW6       30.26S
LEONARDTOWN*   SUNNY     72  46  40 SW8       30.27S

$$

MDZ003>005-041500-
NORTH CENTRAL MARYLAND

CITY           SKY/WX    TMP DP  RH WIND       PRES   REMARKS
FREDERICK*     NOT AVBL
HAGERSTOWN APT SUNNY     69  46  43 VRB3      30.23S
WESTMINSTER*   SUNNY     72  46  40 SW6       30.23S

$$

MDZ501>502-041500-
WESTERN MARYLAND

CITY           SKY/WX    TMP DP  RH WIND       PRES   REMARKS
OAKLAND*       SUNNY     64  45  48 SW9       30.27F
CUMBERLAND*    SUNNY     63  46  55 CALM      30.27F

$$

VAZ025>031-041500-
SHENANDOAH VALLEY

CITY           SKY/WX    TMP DP  RH WIND       PRES   REMARKS
WINCHESTER*    SUNNY     72  41  33 S7        30.23S
FRONT ROYAL*   FAIR      72  48  43 SW5       30.23S
LURAY*         FAIR      70  54  56 CALM      30.25F
NEW MARKET*    FAIR      67  49  53 SW3       30.24F
STAUNTON*      SUNNY     68  51  54 S3        30.28S
WAYNESBORO*    FAIR      70  51  51 SW3       30.27S

$$

WVZ021-048>050-054>055-041500-
EASTERN WEST VIRGINIA PANHANDLE

CITY           SKY/WX    TMP DP  RH WIND       PRES   REMARKS
MARTINSBURG    SUNNY     69  51  52 CALM      30.23F
PETERSBURG*    SUNNY     63  47  54 CALM      30.24F

$$

VAZ036>039-050-041500-
CENTRAL FOOTHILLS

CITY           SKY/WX    TMP DP  RH WIND       PRES   REMARKS
CHARLOTTESVILL SUNNY     68  51  54 SW6       30.25S
CULPEPER*      NOT AVBL
ORANGE*        SUNNY     72  52  49 S6        30.27S
GORDONSVILLE*  FAIR      70  50  50 SW7       30.25S
WARRENTON*     FAIR      72  54  54 S7        30.25S

$$

VAZ055>057-041500-
NORTH AND CENTRAL PIEDMONT

CITY           SKY/WX    TMP DP  RH WIND       PRES   REMARKS
FREDERICKSBRG* SUNNY     73  54  49 S3        30.25S
STAFFORD*      SUNNY     71  50  47 SW5       30.29S

$$

NCZ024-NYZ072-PAZ021-071-VAZ022-071-041500-
OTHER REGIONAL OBSERVATIONS

CITY           SKY/WX    TMP DP  RH WIND       PRES   REMARKS
NEW YORK CITY  SUNNY     72  49  44 CALM      30.24S
PHILADELPHIA   MOSUNNY   71  50  47 SW7       30.23S
PITTSBURGH     MOSUNNY   72  40  31 S10       30.18F
ROANOKE        MOSUNNY   66  50  56 CALM      30.30S
RICHMOND       SUNNY     72  53  51 SW8       30.28S
RALEIGH        MOSUNNY   70  57  63 W8        30.32R

$$

ANZ530>537-041500-
MARINE OBSERVATIONS

STATION/POSITION TIME  TEMP    WIND        PRES
                       AIR SEA DIR/SP/G
                 (UTC) (F)     (DEG/KT/KT) (MB)
THOMAS PT LIGHT  1400   62 58  170/ 10/ 10 1024.8R
BALT KEY BRIDGE  1300   62      CALM  /  1 1023.8R
COVE POINT       1300   67     270/ 12/ 14 1024.9R
LEWISETTA        1300   66 64              1024.7R
SOLOMONS ISLAND  1300      61                N/A
PINEY POINT      1300          110/  3/  3   N/A

$$




USA.gov is the U.S. government's official web portal to all federal, state and local government web resources and services.